EHI
1 2 1 0 0 0 0 0 0 0 0 0 0 0 0 0 0 0 0 0 0 0 0 0 0 0 0 0 0 0 0 1 3 1 0 0 0 0 0 0 0 1 3
1 1 1 0 0 0 0 0 0 0 0 0 0 0 0 0 0 0 0 0 0 0 0 0 0 0 0 0 0 0 0 1 2 1 0 0 0 0 0 0 0 1 3
2 1 0 0 0 0 0 0 0 0 0 0 0 0 1 1 1 0 0 0 0 0 0 0 0 0 0 0 0 0 0 0 0 0 0 0 0 0 1 0 0 0 1
3 2 1 0 0 0 0 0 0 0 0 0 0 1 1 2 1 0 0 0 0 0 0 0 0 0 0 0 0 0 0 0 0 0 0 0 0 0 0 0 0 0 0
4 3 2 1 0 0 0 0 0 0 0 1 1 1 1 1 0 0 0 0 0 0 0 0 0 0 0 0 0 0 0 0 0 0 0 0 0 0 0 0 0 0 0
4 4 4 3 1 0 0 0 0 0 0 1 1 0 0 0 0 0 0 0 0 0 0 0 0 0 0 0 0 1 1 1 0 0 0 0 0 0 0 0 0 0 0
5 6 6 6 4 1 1 0 0 0 0 0 0 0 0 0 0 0 0 0 0 0 0 0 0 0 0 0 1 2 3 3 1 1 1 1 0 0 0 0 0 0 0
7 7 7 6 5 3 2 1 0 0 0 0 0 0 0 0 0 0 0 0 0 0 0 0 0 0 0 0 1 4 7 6 3 1 1 1 0 0 0 0 0 0 0
7 7 6 6 5 4 4 2 1 0 0 0 0 0 0 0 0 0 0 0 0 0 0 0 0 0 0 1 2 5 9 8 4 1 0 0 0 0 0 0 0 0 0
5 5 5 5 5 5 5 4 2 1 0 0 0 0 0 0 1 1 0 0 0 0 0 0 0 0 0 2 3 6 8 6 3 1 1 2 2 1 0 0 0 0 0
4 3 3 4 5 5 6 5 3 2 1 1 1 2 3 2 2 2 1 1 1 1 1 1 2 2 2 2 5 7 6 2 1 1 2 5 5 3 1 1 1 1 0
3 3 3 3 4 4 4 5 5 6 5 3 4 5 5 4 3 3 4 5 5 4 4 4 6 6 5 4 6 7 5 2 1 1 3 6 9 6 3 2 2 2 1
3 3 4 3 3 4 4 4 5 9 8 6 6 5 4 3 3 5 7 9 10 9 7 6 7 7 6 4 4 4 4 2 1 2 3 7 11 10 5 3 3 3 3
4 4 4 4 5 6 6 5 5 7 7 6 6 4 2 1 3 5 7 9 9 9 9 8 6 3 2 2 1 1 1 1 2 3 4 7 11 10 6 3 3 3 4
5 4 4 5 7 8 7 6 4 4 5 6 7 6 4 4 5 5 7 8 7 7 9 9 6 3 2 2 2 2 1 1 2 4 5 8 10 9 7 6 5 4 4
6 7 7 9 10 9 8 6 5 5 5 7 11 10 7 7 9 9 9 9 8 7 8 9 8 6 6 6 5 4 4 4 4 5 7 7 9 10 10 10 8 5 4
9 10 11 11 12 11 9 7 7 7 6 8 12 14 12 12 14 14 13 12 12 10 9 10 11 10 10 10 9 7 6 7 7 7 9 9 8 8 11 12 10 7 4
16 17 14 12 14 14 11 8 8 8 8 9 12 16 18 18 18 18 17 15 15 12 10 10 11 11 11 11 11 10 9 9 10 9 12 13 11 9 10 11 12 10 8
26 24 18 16 17 17 14 10 9 10 11 12 14 19 22 22 20 20 20 19 16 13 10 9 10 11 12 12 12 12 12 13 13 12 13 16 16 14 12 12 13 13 12
40 35 29 26 26 23 17 12 12 14 16 16 17 22 25 23 20 20 20 19 17 13 11 9 11 14 15 14 12 12 13 16 18 16 14 16 19 19 17 17 16 15 13
56 51 44 40 37 28 19 17 17 18 19 20 22 25 26 23 21 20 17 15 15 14 11 10 12 15 15 13 12 12 12 15 18 20 18 18 20 22 22 23 22 20 17
66 63 57 52 46 35 25 23 24 24 25 25 26 27 24 22 21 20 17 13 13 13 11 10 11 13 12 10 10 11 11 11 14 17 19 19 21 24 23 25 29 29 25
67 67 65 64 57 46 36 32 34 36 35 33 33 32 27 23 22 22 19 15 13 11 10 10 11 11 11 10 9 9 10 9 8 12 14 15 18 20 19 21 29 32 29
65 67 71 73 68 57 49 44 45 47 44 40 39 39 35 30 26 26 26 23 18 14 13 14 15 14 12 9 9 9 10 9 8 8 8 9 12 14 14 15 20 25 26
62 66 73 77 73 65 59 54 52 51 47 42 43 44 42 38 33 32 34 34 29 23 19 19 20 18 13 9 8 9 8 9 9 7 5 5 7 9 11 12 14 18 22
59 64 73 79 76 68 62 58 54 51 47 43 44 46 44 41 37 35 37 40 37 29 24 23 23 21 14 9 8 7 8 9 10 7 4 4 5 6 9 11 13 15 19
Wind_Speed
11 12 13 14 15 15 16 16 16 16 16 16 17 16 17 17 17 17 17 17 17 17 16 16 16 16 16 17 16 16 16 16 15 16 16 15 14 14 13 13 13 12 16
13 13 14 14 15 15 16 15 15 15 16 16 17 16 16 17 17 17 17 17 17 16 16 16 16 16 16 16 15 14 14 14 14 15 15 14 13 12 12 12 12 10 15
14 13 13 13 14 15 15 15 15 15 16 17 17 17 17 17 18 18 17 17 17 16 16 16 16 16 15 15 14 13 13 12 12 13 12 9 11 12 13 14 14 14 14
15 13 13 14 14 15 15 14 14 15 16 16 17 17 18 18 18 17 17 16 16 15 16 16 16 15 14 13 12 11 10 9 9 9 6 7 9 13 13 14 14 13 13
15 14 13 14 15 15 15 14 14 15 16 17 17 17 18 17 17 17 17 16 15 15 15 15 15 14 13 12 10 9 7 6 5 6 7 8 8 12 13 12 13 13 12
16 15 13 14 14 14 14 15 15 15 16 16 17 17 17 17 17 16 16 15 15 15 15 15 14 13 12 10 8 6 5 3 3 6 7 8 8 10 12 12 12 12 12
16 15 14 14 14 14 14 15 15 16 16 16 16 16 16 16 16 15 15 15 14 14 14 13 13 11 9 7 5 4 2 1 4 7 7 8 8 10 11 11 11 11 11
16 15 14 14 14 14 14 14 14 15 15 15 15 16 15 15 15 14 14 13 13 13 13 12 11 9 7 5 3 2 1 1 7 9 9 8 9 10 10 10 10 10 10
14 14 13 12 12 13 13 13 14 14 14 14 14 14 14 14 14 13 12 12 12 11 11 10 9 8 6 3 2 1 2 3 4 6 10 7 9 10 10 10 9 9 9
11 12 12 12 11 11 11 13 13 13 13 12 12 12 12 13 12 12 11 10 10 9 9 9 8 7 4 2 1 2 3 3 5 8 7 8 10 10 10 10 9 9 9
9 8 10 11 10 10 11 12 11 11 11 10 9 10 8 6 8 8 11 10 9 8 7 7 6 5 4 3 3 3 3 0 6 6 6 10 10 10 10 9 9 9 9
8 7 7 8 8 8 9 8 7 7 7 5 5 6 3 3 5 8 10 10 9 7 6 6 5 5 4 3 4 4 2 2 5 6 7 11 10 10 9 9 8 8 8
7 7 8 6 4 6 6 6 4 4 5 5 6 4 3 3 4 5 4 6 5 6 4 5 5 3 2 1 1 2 1 2 4 5 8 11 10 10 9 9 8 8 8
7 7 8 7 5 4 4 4 4 4 4 3 4 4 3 2 2 2 2 2 2 2 2 2 1 1 1 1 0 0 2 2 4 5 7 11 10 10 9 9 9 8 8
7 8 8 7 5 4 3 2 3 3 4 4 3 3 3 2 2 3 2 1 1 1 2 1 1 1 1 1 0 0 2 3 4 6 5 10 10 10 10 10 9 9 8
8 8 7 7 6 3 2 2 2 3 3 3 3 4 3 3 3 3 2 1 1 1 2 1 1 0 0 0 0 1 1 2 4 6 6 8 10 10 10 10 10 9 9
8 8 7 7 6 4 2 2 3 3 4 3 3 4 3 3 3 2 2 1 1 1 1 0 0 0 1 0 1 0 0 1 3 5 6 6 7 10 11 11 10 10 10
8 7 6 7 7 4 2 1 1 2 3 3 3 3 4 3 2 2 2 1 1 1 0 0 0 0 0 0 1 1 1 1 3 4 5 6 6 7 10 12 11 11 11
8 7 5 5 7 5 4 2 1 1 2 2 2 2 3 3 2 2 1 1 1 0 0 0 1 0 1 1 1 2 3 3 3 4 4 5 6 6 7 10 13 12 12
9 7 6 5 6 5 3 2 1 2 2 2 2 2 3 2 2 1 1 1 1 0 1 1 1 1 1 2 3 2 3 3 3 3 4 4 4 6 7 8 8 9 11
9 8 6 6 6 4 3 3 3 3 3 3 3 4 4 3 3 1 1 1 1 0 1 1 1 2 2 2 2 2 2 3 4 3 3 2 3 4 5 6 6 5 6
9 8 8 7 6 5 4 3 2 2 2 2 2 3 4 3 3 3 3 2 1 1 1 1 1 2 2 1 1 1 1 2 2 4 3 3 3 2 3 6 5 5 4
10 9 9 7 6 6 5 4 3 2 2 2 3 3 3 3 3 2 2 2 2 2 2 2 2 2 2 2 1 1 0 1 2 1 2 2 3 2 2 3 5 5 4
10 10 8 8 7 6 6 5 5 5 4 4 3 3 3 4 3 3 3 2 2 1 2 3 2 2 2 3 2 1 2 1 1 1 1 1 3 3 2 2 3 4 4
11 11 9 8 7 7 6 6 6 5 4 3 3 4 4 3 4 4 3 3 2 2 2 2 1 2 2 2 2 1 1 1 2 1 1 1 1 1 2 2 1 2 3
10 10 10 9 7 7 7 6 6 5 4 3 3 4 4 3 3 4 4 3 3 3 2 2 2 2 1 2 2 2 1 1 1 1 2 1 1 1 1 1 2 2 2
Wind_Direction
80 77 73 71 74 76 77 77 79 82 84 84 88 88 90 91 91 91 92 94 96 98 98 100 99 98 98 98 99 100 101 102 105 108 108 107 105 104 105 110 109 106 109
90 85 77 75 77 78 77 80 81 82 83 84 86 89 92 93 91 90 91 94 97 97 98 99 100 100 98 99 101 103 104 106 110 114 111 107 105 105 104 107 105 112 114
93 91 84 78 79 79 78 80 82 84 84 85 87 87 92 91 90 89 90 92 96 97 98 101 100 100 99 100 101 103 105 110 115 121 118 110 106 103 102 103 109 116 115
98 92 85 82 81 81 79 80 84 86 86 87 89 88 89 89 89 91 90 89 93 96 97 100 98 99 100 101 103 105 108 114 120 126 114 108 107 106 107 109 114 119 119
95 92 88 85 84 85 83 82 88 90 89 89 91 91 91 91 91 91 91 90 94 98 97 96 96 97 96 98 102 105 110 118 129 111 100 97 98 110 110 114 117 119 120
101 96 92 89 87 87 86 85 88 92 93 94 95 94 93 92 90 90 91 91 92 95 94 95 96 97 96 97 103 108 109 125 118 102 99 100 104 113 114 117 119 121 122
103 101 100 94 91 90 90 90 92 93 94 94 97 96 95 95 93 92 91 92 91 93 94 94 96 98 99 102 102 101 96 62 114 105 99 99 105 112 115 119 122 124 126
108 106 106 100 96 94 96 95 94 96 97 96 97 99 99 100 99 96 94 93 93 94 96 97 98 102 102 98 94 82 15 2 105 106 105 105 115 117 118 118 122 127 128
107 114 118 115 107 102 103 103 101 100 101 101 104 105 107 106 105 103 100 98 97 97 99 102 104 109 108 98 78 8 341 353 94 109 109 111 121 122 122 121 123 126 130
105 113 119 122 124 121 113 111 110 110 110 112 113 116 117 117 116 116 112 105 105 108 110 112 116 120 125 144 265 298 316 317 106 101 104 118 125 126 126 126 127 128 129
97 104 114 124 133 130 125 126 127 123 124 127 128 134 138 133 130 128 115 122 124 125 125 129 136 148 166 201 242 272 289 171 101 98 104 123 130 130 131 132 133 132 130
108 108 105 115 127 126 124 135 142 132 136 144 135 144 148 123 120 121 128 138 143 146 149 163 174 187 208 198 210 232 258 128 112 108 117 132 134 136 138 140 140 141 140
125 121 109 97 89 108 121 136 126 122 136 134 125 125 125 121 129 131 144 152 164 170 173 168 193 205 195 188 198 179 167 98 105 109 129 139 142 144 146 148 148 151 152
129 116 112 107 81 62 81 116 130 134 135 124 130 138 123 113 110 109 121 137 159 153 149 158 189 148 107 119 122 98 114 109 107 113 140 148 150 152 153 155 158 160 162
125 114 105 106 97 83 63 68 107 105 113 117 120 122 124 127 108 97 86 75 75 92 100 62 46 57 51 21 16 109 94 101 119 129 140 157 158 161 163 166 169 171 173
137 126 122 117 110 110 108 95 93 102 109 113 114 112 106 99 103 103 101 80 64 71 80 103 133 82 330 104 13 29 114 137 127 135 147 163 169 172 176 177 179 182 184
135 127 130 129 127 132 135 160 138 134 128 115 114 118 120 121 119 124 128 132 108 98 111 141 108 310 237 179 156 253 187 157 144 152 157 165 174 184 187 187 188 190 193
136 138 151 148 136 132 122 75 71 101 106 112 121 120 131 133 127 135 129 142 135 133 125 156 190 294 340 274 230 242 207 182 178 179 172 170 172 178 192 195 195 197 201
139 143 151 134 137 142 144 142 143 102 95 121 134 132 132 133 131 127 129 129 241 190 135 277 73 284 263 268 245 224 220 198 197 201 184 176 176 172 176 193 199 202 204
146 148 153 145 139 142 147 158 182 164 156 151 136 137 135 135 131 135 150 195 259 79 62 26 315 283 263 263 267 245 230 209 195 197 203 189 179 180 180 178 189 204 206
155 157 162 162 153 160 173 189 185 181 177 171 169 156 153 163 160 186 171 182 276 27 234 231 274 271 258 241 265 277 252 220 199 187 201 195 183 184 172 166 180 185 194
160 163 166 169 169 182 183 191 194 182 182 173 162 152 167 182 184 190 192 201 195 208 238 265 273 289 287 262 274 309 304 303 261 199 184 184 182 175 176 180 177 174 176
172 173 175 172 171 191 189 189 196 181 199 185 171 170 186 194 195 194 186 210 210 220 218 234 240 261 285 292 257 207 243 267 303 270 193 179 168 178 191 171 168 170 183
177 171 164 162 168 181 194 199 201 199 201 197 182 173 184 198 199 196 199 209 234 232 214 238 214 249 269 284 280 222 222 196 231 312 313 188 185 181 189 210 170 170 180
175 172 169 167 174 178 194 201 212 215 206 196 178 174 190 195 205 204 194 197 222 234 238 253 248 266 280 286 297 285 255 240 226 211 262 284 297 183 183 182 180 157 163
178 176 173 169 175 181 194 202 208 215 211 208 196 183 193 194 205 206 203 193 205 224 232 233 245 252 272 310 312 311 301 272 257 237 239 245 257 286 206 169 186 160 148